Regional Weather Roundup
Issued by NWS

Home | Current Version | Previous Version | Graphics & Text | Print | Product List | Glossary On
Versions: 1 2 3 4 5 6 7 8 9 10 11 12 13 14 15 16 17 18 19 20 21 22 23 24 25 26 27 28 29 30 31 32 33 34 35 36 37 38 39 40 41 42 43 44 45 46 47 48 49 50
000
ASUS43 KDMX 230207
RWRIA

WEATHER ROUNDUP FOR IOWA
NATIONAL WEATHER SERVICE DES MOINES IA
900 PM CDT TUE JUL 22 2014

NOTE: "FAIR" INDICATES FEW OR NO CLOUDS BELOW 12,000 FEET WITH NO
SIGNIFICANT WEATHER AND/OR OBSTRUCTIONS TO VISIBILITY.

* - THESE STATIONS ARE NOT NWS STATIONS...THUS NOT UNDER NWS
QUALITY CONTROL.  THEY ALSO DO NOT REPORT WEATHER SUCH
AS PRECIPITATION OR FOG.

IAZ001>003-012>014-020>022-031>034-043>046-230300-
   NORTHWEST IOWA

CITY           SKY/WX    TMP DP  RH WIND       PRES   REMARKS
CARROLL *        N/A     72  66  83 NW6       30.12R
CHEROKEE *       N/A     75  61  61 N8        30.14S
DENISON *        N/A     75  66  73 N3        30.12R
LE MARS *        N/A     73  63  68 N7        30.16S
ORANGE CITY *    N/A     77  59  53 N6        30.17S
SHELDON *        N/A     70  61  73 N6        30.16S
SIOUX CITY       N/A     78  64  61 NE6       30.14S HX  80
SPENCER          N/A     72  59  63 N9        30.15S
STORM LAKE *     N/A     72  64  78 N8        30.16R
$$

IAZ055>058-069>071-079>083-090>094-230300-
   SOUTHWEST IOWA

CITY           SKY/WX    TMP DP  RH WIND       PRES   REMARKS
ATLANTIC *       N/A     75  70  83 N8        30.10S
AUDUBON *        N/A     77  72  83 N5        30.13S
CLARINDA *       N/A     81  72  74 N10       30.09R HX  84
COUNCIL BLFS *   N/A     77  72  83 N7        30.11S
CRESTON *        N/A     79  72  78 N13       30.09R HX  82
HARLAN  *        N/A     75  70  83 N6        30.15S
LAMONI           N/A     79  73  82 NE6       30.05R HX  82
RED OAK *        N/A     77  72  83 N8        30.10S
SHENANDOAH *     N/A     81  72  74 N10       30.09S HX  84
$$

IAZ047>049-059>061-072>074-084-230300-
   CENTRAL IOWA

CITY           SKY/WX    TMP DP  RH WIND       PRES   REMARKS
AMES             N/A     78  67  68 N10       30.08R HX  80
ANKENY *         N/A     79  70  73 N10G16    30.06S HX  81
CHARITON *       N/A     79  72  78 N6        30.06R HX  82
DES MOINES       N/A     82  68  62 N13       30.06R HX  85
GRINNELL*        N/A     75  70  83 NW5       30.06R
KNOXVILLE *      N/A     81  72  74 N8        30.04R HX  84
MARSHALLTOWN     N/A     77  69  76 N12       30.06R
PELLA *          N/A     79  71  76 N6        30.06R HX  81
PERRY *          N/A     75  68  78 N7        30.09R
$$

IAZ004>006-015-016-023>025-035-036-230300-
   NORTH CENTRAL IOWA

CITY           SKY/WX    TMP DP  RH WIND       PRES   REMARKS
ALGONA *         N/A     75  63  64 N8        30.13R
CLARION *        N/A     73  64  73 N5        30.11R
ESTHERVILLE      N/A     72  58  61 N9        30.15R
FORT DODGE *     N/A     75  63  64 N3        30.12S
MASON CITY       N/A     74  63  68 NW10      30.11R
FOREST CITY *    N/A     73  59  60 N10       30.11S
IOWA FALLS *     N/A     75  64  69 NW5       30.10R
$$

IAZ007>011-017>019-026>030-037>042-050>054-066-230300-
   NORTHEAST IOWA

CITY           SKY/WX    TMP DP  RH WIND       PRES   REMARKS
CEDAR RAPIDS     N/A     79  69  71 N8        30.02R HX  81
CHARLES CITY *   N/A     73  64  73 N7        30.09R
DECORAH *        N/A     75  64  69 N8        30.06S
DUBUQUE          N/A     78  71  79 N12       30.02R HX  80
MONTICELLO *     N/A     77  72  83 N7        30.02R
OELWEIN *        N/A     77  66  69 N9G16     30.07R
WATERLOO         N/A     76  66  71 N9        30.05R
$$

IAZ064-065-067-068-078-230300-
   EAST CENTRAL IOWA

CITY           SKY/WX    TMP DP  RH WIND       PRES   REMARKS
DAVENPORT        N/A     81  77  88 W8        29.99R FOG     HX  88
IOWA CITY        N/A     84  72  67 N8        30.01R HX  89
MT. PLEASANT *   N/A     81  79  91 CALM      30.00S FOG     HX  90
MUSCATINE *    MOCLDY    82  79  89 W6        29.99R HX  93
QUAD CITIES      N/A     81  77  88 W6        29.98R HX  88
$$

IAZ062-063-075>077-085>089-095>099-230300-
   SOUTHEAST IOWA

CITY           SKY/WX    TMP DP  RH WIND       PRES   REMARKS
BURLINGTON       N/A     78  76  93 SW5       30.00S HX  81
FAIRFIELD *      N/A     81  75  83 NW8       30.03R HX  86
FORT MADISON *   N/A     81  79  94 S3        30.02R FOG     HX  89
KEOKUK *       MOCLDY    79  77  94 CALM      30.01R HX  83
OSKALOOSA *      N/A     77  72  84 N5        30.04R
CENTERVILLE *  CLEAR     81  75  83 N6        30.06R HX  86
OTTUMWA          N/A     78  72  81 N7        30.03R HX  80
WASHINGTON *     N/A     82  73  74 N8        30.01R HX  88
$$

ABBREVIATIONS USED IN REMARKS
   TC - TEMPERATURES IN CELSIUS
  WCI - WIND CHILL INDEX
   HX - HEAT INDEX
  VSB - VISIBILITY
$$



USA.gov is the U.S. government's official web portal to all federal, state and local government web resources and services.